| time (UTC) | temp F | wind direction | speed MPH | gust MPH | rain 1hr in | rain 24hr in | rain mn in | humidity % | barometer mb |
| 20260508000519 | 55 | 117 | 4.0 | 7.0 | 0.00 | 0.15 | 0.00 | 79 | 1016.6 |
| 20260508000029 | 59 | 146 | 2.0 | 4.0 | 0.00 | 0.01 | 0.00 | 70 | 1013.7 |
| 20260507235535 | 55 | 107 | 4.0 | 9.0 | 0.00 | 0.15 | 0.00 | 79 | 1016.7 |
| 20260507235025 | 59 | 91 | 2.0 | 3.0 | 0.00 | 0.01 | 0.00 | 71 | 1013.7 |
| 20260507234531 | 55 | 108 | 5.0 | 8.0 | 0.00 | 0.15 | 0.00 | 79 | 1016.9 |
| 20260507234022 | 59 | 45 | 1.0 | 2.0 | 0.00 | 0.01 | 0.00 | 72 | 1013.8 |
| 20260507233526 | 55 | 105 | 4.0 | 7.0 | 0.00 | 0.15 | 0.00 | 79 | 1017.0 |
| 20260507233038 | 59 | 86 | 1.0 | 2.0 | 0.00 | 0.01 | 0.00 | 72 | 1014.0 |
| 20260507232523 | 56 | 103 | 5.0 | 8.0 | 0.00 | 0.15 | 0.00 | 77 | 1016.9 |
| 20260507232034 | 59 | 117 | 0.0 | 2.0 | 0.00 | 0.01 | 0.00 | 71 | 1014.0 |
| 20260507231518 | 56 | 108 | 5.0 | 9.0 | 0.00 | 0.15 | 0.00 | 77 | 1017.2 |
| 20260507231031 | 60 | 85 | 1.0 | 3.0 | 0.00 | 0.01 | 0.00 | 69 | 1014.1 |
| 20260507230534 | 56 | 100 | 5.0 | 9.0 | 0.00 | 0.15 | 0.00 | 77 | 1017.3 |
| 20260507230027 | 60 | 82 | 2.0 | 4.0 | 0.00 | 0.01 | 0.00 | 67 | 1014.4 |
| 20260507225530 | 56 | 99 | 6.0 | 9.0 | 0.00 | 0.15 | 0.00 | 77 | 1017.5 |
| 20260507225023 | 60 | 90 | 2.0 | 4.0 | 0.00 | 0.01 | 0.00 | 66 | 1014.5 |
| 20260507224526 | 56 | 100 | 6.0 | 9.0 | 0.00 | 0.15 | 0.00 | 78 | 1017.5 |
| 20260507224020 | 60 | 113 | 2.0 | 4.0 | 0.00 | 0.01 | 0.00 | 65 | 1014.6 |
| 20260507223522 | 56 | 100 | 5.0 | 9.0 | 0.00 | 0.15 | 0.00 | 78 | 1017.5 |
| 20260507223016 | 60 | 100 | 2.0 | 4.0 | 0.00 | 0.01 | 0.00 | 66 | 1014.5 |
| 20260507222518 | 56 | 101 | 5.0 | 9.0 | 0.00 | 0.15 | 0.00 | 78 | 1017.6 |
| 20260507222033 | 59 | 131 | 1.0 | 3.0 | 0.00 | 0.01 | 0.00 | 67 | 1014.7 |
| 20260507221534 | 55 | 102 | 6.0 | 9.0 | 0.00 | 0.15 | 0.00 | 79 | 1017.6 |
| 20260507221029 | 59 | 133 | 3.0 | 5.0 | 0.00 | 0.01 | 0.00 | 67 | 1014.6 |
| 20260507220530 | 55 | 105 | 5.0 | 9.0 | 0.00 | 0.15 | 0.00 | 80 | 1017.6 |
| 20260507220025 | 59 | 149 | 3.0 | 4.0 | 0.00 | 0.01 | 0.00 | 65 | 1014.7 |
| 20260507215546 | 55 | 94 | 6.0 | 11.0 | 0.00 | 0.15 | 0.15 | 80 | 1017.6 |
| 20260507215022 | 58 | 158 | 3.0 | 5.0 | 0.00 | 0.02 | 0.02 | 65 | 1014.8 |
| 20260507214522 | 55 | 100 | 6.0 | 10.0 | 0.00 | 0.15 | 0.15 | 80 | 1017.8 |
| 20260507214038 | 58 | 138 | 2.0 | 3.0 | 0.00 | 0.02 | 0.02 | 68 | 1014.7 |
| 20260507213518 | 55 | 93 | 5.0 | 8.0 | 0.00 | 0.15 | 0.15 | 81 | 1017.7 |
| 20260507213055 | 58 | 137 | 3.0 | 4.0 | 0.00 | 0.03 | 0.02 | 69 | 1014.9 |
| 20260507212534 | 54 | 110 | 5.0 | 9.0 | 0.00 | 0.15 | 0.15 | 82 | 1017.8 |
| 20260507212031 | 58 | 127 | 3.0 | 4.0 | 0.00 | 0.03 | 0.02 | 70 | 1014.8 |
| 20260507211530 | 53 | 112 | 3.0 | 7.0 | 0.00 | 0.15 | 0.15 | 84 | 1017.9 |
| 20260507211027 | 57 | 142 | 3.0 | 4.0 | 0.00 | 0.04 | 0.02 | 72 | 1014.9 |
| 20260507210525 | 53 | 63 | 2.0 | 5.0 | 0.00 | 0.15 | 0.15 | 84 | 1017.9 |
| 20260507210026 | 58 | 140 | 1.0 | 2.0 | 0.00 | 0.04 | 0.02 | 71 | 1015.0 |
| 20260507205521 | 53 | 64 | 2.0 | 7.0 | 0.00 | 0.15 | 0.15 | 86 | 1017.8 |
| 20260507205100 | 58 | 135 | 2.0 | 3.0 | 0.00 | 0.04 | 0.02 | 71 | 1014.9 |
| 20260507204537 | 53 | 85 | 3.0 | 7.0 | 0.00 | 0.15 | 0.15 | 85 | 1017.8 |
| 20260507204017 | 58 | 130 | 3.0 | 4.0 | 0.00 | 0.05 | 0.02 | 72 | 1014.9 |
| 20260507203533 | 53 | 59 | 2.0 | 4.0 | 0.00 | 0.15 | 0.15 | 85 | 1017.9 |
| 20260507203053 | 57 | 136 | 3.0 | 4.0 | 0.00 | 0.06 | 0.02 | 74 | 1015.0 |
| 20260507202530 | 53 | 60 | 2.0 | 4.0 | 0.00 | 0.15 | 0.15 | 85 | 1018.1 |
| 20260507202029 | 57 | 144 | 2.0 | 4.0 | 0.00 | 0.06 | 0.02 | 74 | 1015.2 |
| 20260507201525 | 53 | 47 | 2.0 | 5.0 | 0.00 | 0.15 | 0.15 | 85 | 1018.1 |
| 20260507201106 | 58 | 140 | 3.0 | 4.0 | 0.00 | 0.07 | 0.02 | 73 | 1015.2 |
| 20260507200521 | 53 | 46 | 2.0 | 5.0 | 0.00 | 0.15 | 0.15 | 84 | 1018.1 |
| 20260507200022 | 58 | 130 | 3.0 | 4.0 | 0.00 | 0.07 | 0.02 | 74 | 1015.3 |
| 20260507195517 | 53 | 43 | 2.0 | 4.0 | 0.00 | 0.15 | 0.15 | 83 | 1018.1 |
| 20260507195018 | 58 | 124 | 3.0 | 4.0 | 0.00 | 0.07 | 0.02 | 73 | 1015.3 |
| 20260507194553 | 53 | 41 | 2.0 | 4.0 | 0.00 | 0.15 | 0.15 | 85 | 1018.1 |
| 20260507194035 | 59 | 65 | 0.0 | 2.0 | 0.00 | 0.07 | 0.02 | 70 | 1015.2 |
| 20260507193529 | 53 | 46 | 2.0 | 6.0 | 0.00 | 0.15 | 0.15 | 85 | 1018.0 |
| 20260507193031 | 58 | 79 | 1.0 | 2.0 | 0.00 | 0.07 | 0.02 | 73 | 1015.3 |
| 20260507192525 | 53 | 37 | 2.0 | 4.0 | 0.00 | 0.15 | 0.15 | 85 | 1018.0 |
| 20260507192028 | 59 | 94 | 1.0 | 3.0 | 0.00 | 0.07 | 0.02 | 73 | 1015.1 |
| 20260507191521 | 53 | 15 | 2.0 | 4.0 | 0.00 | 0.15 | 0.15 | 85 | 1018.1 |
| 20260507191024 | 58 | 39 | 1.0 | 3.0 | 0.00 | 0.07 | 0.02 | 76 | 1015.1 |
| 20260507190517 | 53 | 352 | 2.0 | 3.0 | 0.00 | 0.15 | 0.15 | 84 | 1018.0 |
| 20260507190020 | 58 | 90 | 1.0 | 2.0 | 0.00 | 0.07 | 0.02 | 78 | 1015.0 |
| 20260507185533 | 54 | 332 | 2.0 | 4.0 | 0.00 | 0.15 | 0.15 | 83 | 1018.1 |
| 20260507185016 | 58 | 73 | 1.0 | 2.0 | 0.00 | 0.07 | 0.02 | 80 | 1015.0 |
| 20260507184529 | 54 | 6 | 1.0 | 4.0 | 0.00 | 0.15 | 0.15 | 82 | 1018.1 |
| 20260507184033 | 59 | 111 | 1.0 | 2.0 | 0.00 | 0.07 | 0.02 | 79 | 1015.1 |
| 20260507183525 | 54 | 324 | 2.0 | 4.0 | 0.00 | 0.15 | 0.15 | 83 | 1018.0 |
| 20260507183029 | 59 | 114 | 0.0 | 2.0 | 0.00 | 0.07 | 0.02 | 79 | 1015.1 |
| 20260507182521 | 54 | 317 | 2.0 | 5.0 | 0.00 | 0.15 | 0.15 | 82 | 1018.1 |
| 20260507182026 | 59 | 126 | 0.0 | 2.0 | 0.00 | 0.07 | 0.02 | 80 | 1015.0 |
| 20260507181517 | 54 | 35 | 1.0 | 4.0 | 0.00 | 0.15 | 0.15 | 84 | 1018.2 |
| 20260507181042 | 60 | 86 | 1.0 | 2.0 | 0.00 | 0.07 | 0.02 | 78 | 1015.0 |
| 20260507180533 | 54 | 121 | 1.0 | 4.0 | 0.00 | 0.15 | 0.15 | 83 | 1018.2 |
| 20260507180019 | 60 | 101 | 1.0 | 2.0 | 0.00 | 0.07 | 0.02 | 76 | 1015.1 |
| 20260507175529 | 55 | 158 | 1.0 | 4.0 | 0.00 | 0.15 | 0.15 | 83 | 1018.2 |
| 20260507175055 | 61 | 0.0 | 1.0 | 0.00 | 0.07 | 0.02 | 73 | 1015.1 | |
| 20260507174525 | 55 | 133 | 2.0 | 4.0 | 0.00 | 0.16 | 0.15 | 81 | 1018.4 |
| 20260507174052 | 61 | 82 | 0.0 | 2.0 | 0.00 | 0.07 | 0.02 | 70 | 1015.2 |
| 20260507173521 | 55 | 141 | 2.0 | 4.0 | 0.00 | 0.16 | 0.15 | 79 | 1018.3 |
| 20260507173028 | 61 | 114 | 1.0 | 2.0 | 0.00 | 0.07 | 0.02 | 71 | 1015.2 |
| 20260507172517 | 56 | 157 | 2.0 | 5.0 | 0.00 | 0.17 | 0.15 | 79 | 1018.2 |
| 20260507172024 | 61 | 98 | 0.0 | 2.0 | 0.00 | 0.07 | 0.02 | 70 | 1015.2 |
| 20260507171533 | 56 | 152 | 2.0 | 5.0 | 0.00 | 0.17 | 0.15 | 79 | 1018.2 |
| 20260507171021 | 62 | 50 | 0.0 | 2.0 | 0.00 | 0.07 | 0.02 | 69 | 1015.1 |
| 20260507170529 | 57 | 186 | 2.0 | 6.0 | 0.00 | 0.17 | 0.15 | 78 | 1018.2 |
| 20260507170017 | 63 | 128 | 0.0 | 2.0 | 0.00 | 0.07 | 0.02 | 68 | 1015.0 |
| 20260507165525 | 57 | 161 | 2.0 | 8.0 | 0.00 | 0.17 | 0.15 | 78 | 1018.2 |
| 20260507165053 | 63 | 98 | 0.0 | 2.0 | 0.00 | 0.07 | 0.02 | 68 | 1015.1 |
| 20260507164521 | 58 | 165 | 3.0 | 7.0 | 0.00 | 0.17 | 0.15 | 77 | 1018.1 |
| 20260507164030 | 63 | 40 | 0.0 | 2.0 | 0.00 | 0.07 | 0.02 | 68 | 1015.0 |
| 20260507163517 | 59 | 177 | 2.0 | 5.0 | 0.00 | 0.17 | 0.15 | 78 | 1018.1 |
| 20260507163026 | 63 | 61 | 1.0 | 2.0 | 0.00 | 0.07 | 0.02 | 70 | 1015.0 |
| 20260507162533 | 59 | 189 | 2.0 | 7.0 | 0.00 | 0.17 | 0.15 | 76 | 1018.2 |
| 20260507162042 | 63 | 357 | 1.0 | 2.0 | 0.00 | 0.07 | 0.02 | 68 | 1015.1 |
| 20260507161529 | 60 | 167 | 2.0 | 6.0 | 0.00 | 0.17 | 0.15 | 76 | 1018.1 |
| 20260507161019 | 64 | 8 | 1.0 | 2.0 | 0.00 | 0.07 | 0.02 | 69 | 1015.1 |
| 20260507160525 | 59 | 217 | 1.0 | 5.0 | 0.00 | 0.17 | 0.15 | 77 | 1018.1 |
| 20260507160035 | 64 | 357 | 0.0 | 3.0 | 0.00 | 0.07 | 0.02 | 69 | 1015.3 |
| 20260507155521 | 59 | 201 | 3.0 | 9.0 | 0.00 | 0.17 | 0.15 | 78 | 1018.1 |
| 20260507155032 | 64 | 42 | 0.0 | 2.0 | 0.00 | 0.07 | 0.02 | 69 | 1015.1 |
| 20260507154517 | 59 | 182 | 1.0 | 4.0 | 0.00 | 0.17 | 0.15 | 79 | 1018.1 |
| 20260507154028 | 64 | 338 | 1.0 | 2.0 | 0.00 | 0.07 | 0.02 | 69 | 1015.2 |
| 20260507153533 | 60 | 216 | 2.0 | 5.0 | 0.00 | 0.17 | 0.15 | 77 | 1018.1 |
| 20260507153025 | 64 | 9 | 0.0 | 2.0 | 0.00 | 0.07 | 0.02 | 68 | 1015.2 |
| 20260507152529 | 60 | 129 | 2.0 | 6.0 | 0.00 | 0.17 | 0.15 | 77 | 1018.1 |
| 20260507152021 | 66 | 340 | 1.0 | 3.0 | 0.00 | 0.07 | 0.02 | 65 | 1015.2 |
| 20260507151546 | 60 | 180 | 2.0 | 5.0 | 0.00 | 0.17 | 0.15 | 79 | 1018.3 |
| 20260507151017 | 66 | 344 | 1.0 | 2.0 | 0.00 | 0.07 | 0.02 | 67 | 1015.3 |
| 20260507150541 | 60 | 170 | 3.0 | 7.0 | 0.00 | 0.17 | 0.15 | 79 | 1018.2 |
| 20260507150034 | 66 | 336 | 1.0 | 2.0 | 0.00 | 0.07 | 0.02 | 66 | 1015.3 |
| 20260507145517 | 60 | 106 | 2.0 | 4.0 | 0.00 | 0.17 | 0.15 | 77 | 1018.3 |
| 20260507145030 | 66 | 323 | 1.0 | 4.0 | 0.00 | 0.07 | 0.02 | 66 | 1015.1 |
| 20260507144554 | 61 | 134 | 4.0 | 7.0 | 0.00 | 0.17 | 0.15 | 78 | 1018.2 |
| 20260507144026 | 67 | 341 | 0.0 | 3.0 | 0.00 | 0.07 | 0.02 | 67 | 1015.2 |
| 20260507143530 | 62 | 236 | 1.0 | 4.0 | 0.00 | 0.17 | 0.15 | 74 | 1018.3 |
| 20260507143023 | 66 | 61 | 0.0 | 2.0 | 0.00 | 0.07 | 0.02 | 69 | 1015.3 |
| 20260507142526 | 61 | 132 | 3.0 | 7.0 | 0.00 | 0.17 | 0.15 | 76 | 1018.5 |
| 20260507142019 | 66 | 40 | 1.0 | 3.0 | 0.00 | 0.07 | 0.02 | 69 | 1015.4 |
| 20260507141522 | 60 | 356 | 2.0 | 4.0 | 0.00 | 0.17 | 0.15 | 76 | 1018.6 |
| 20260507141015 | 65 | 50 | 1.0 | 2.0 | 0.00 | 0.07 | 0.02 | 70 | 1015.7 |
| 20260507140518 | 60 | 107 | 3.0 | 8.0 | 0.00 | 0.17 | 0.15 | 78 | 1018.8 |
| 20260507140032 | 65 | 1 | 1.0 | 2.0 | 0.00 | 0.07 | 0.02 | 69 | 1015.7 |
| 20260507135535 | 60 | 22 | 2.0 | 5.0 | 0.00 | 0.17 | 0.15 | 79 | 1019.0 |
| 20260507135028 | 64 | 68 | 1.0 | 2.0 | 0.00 | 0.07 | 0.02 | 71 | 1016.0 |
| 20260507134611 | 59 | 146 | 2.0 | 6.0 | 0.00 | 0.17 | 0.15 | 79 | 1019.1 |
| 20260507134045 | 65 | 329 | 1.0 | 2.0 | 0.00 | 0.07 | 0.02 | 70 | 1016.2 |
| 20260507133527 | 59 | 93 | 2.0 | 6.0 | 0.00 | 0.17 | 0.15 | 78 | 1019.1 |
| 20260507133021 | 66 | 4 | 1.0 | 3.0 | 0.00 | 0.07 | 0.02 | 68 | 1016.1 |
| 20260507132523 | 59 | 115 | 3.0 | 6.0 | 0.00 | 0.17 | 0.15 | 79 | 1019.3 |
| 20260507132017 | 66 | 356 | 1.0 | 4.0 | 0.00 | 0.07 | 0.02 | 70 | 1016.2 |
| 20260507131539 | 59 | 136 | 3.0 | 9.0 | 0.00 | 0.17 | 0.15 | 78 | 1019.3 |
| 20260507131034 | 65 | 355 | 2.0 | 4.0 | 0.00 | 0.07 | 0.02 | 74 | 1016.2 |
| 20260507130516 | 60 | 155 | 3.0 | 9.0 | 0.00 | 0.17 | 0.15 | 79 | 1019.2 |
| 20260507130030 | 65 | 328 | 0.0 | 3.0 | 0.00 | 0.07 | 0.02 | 72 | 1016.3 |
| 20260507125532 | 58 | 148 | 2.0 | 8.0 | 0.00 | 0.17 | 0.15 | 81 | 1019.2 |
| 20260507125026 | 64 | 345 | 1.0 | 3.0 | 0.00 | 0.07 | 0.02 | 75 | 1016.3 |
| 20260507124528 | 58 | 104 | 2.0 | 5.0 | 0.00 | 0.17 | 0.15 | 84 | 1019.3 |
| 20260507124023 | 64 | 344 | 2.0 | 4.0 | 0.00 | 0.07 | 0.02 | 72 | 1016.4 |
| 20260507123544 | 58 | 105 | 2.0 | 6.0 | 0.00 | 0.17 | 0.15 | 85 | 1019.4 |
| 20260507123019 | 64 | 55 | 1.0 | 2.0 | 0.00 | 0.07 | 0.02 | 75 | 1016.5 |
| 20260507122540 | 57 | 101 | 2.0 | 6.0 | 0.00 | 0.17 | 0.15 | 87 | 1019.6 |
| 20260507122056 | 63 | 325 | 1.0 | 4.0 | 0.00 | 0.07 | 0.02 | 76 | 1016.6 |
| 20260507121516 | 56 | 104 | 2.0 | 5.0 | 0.00 | 0.17 | 0.15 | 88 | 1019.4 |
| 20260507121032 | 64 | 321 | 0.0 | 2.0 | 0.00 | 0.07 | 0.02 | 76 | 1016.6 |
| 20260507120532 | 57 | 114 | 3.0 | 6.0 | 0.00 | 0.17 | 0.15 | 86 | 1019.5 |
| 20260507120028 | 63 | 18 | 1.0 | 3.0 | 0.00 | 0.07 | 0.02 | 74 | 1016.6 |
| 20260507115529 | 57 | 106 | 2.0 | 5.0 | 0.00 | 0.17 | 0.15 | 86 | 1019.6 |
| 20260507115045 | 63 | 356 | 1.0 | 2.0 | 0.00 | 0.07 | 0.02 | 76 | 1016.7 |
| 20260507114545 | 58 | 114 | 3.0 | 7.0 | 0.00 | 0.17 | 0.15 | 84 | 1019.6 |
| 20260507114021 | 63 | 356 | 1.0 | 2.0 | 0.00 | 0.07 | 0.02 | 75 | 1016.7 |
| 20260507113521 | 58 | 90 | 2.0 | 5.0 | 0.00 | 0.17 | 0.15 | 84 | 1019.6 |
| 20260507113018 | 63 | 19 | 1.0 | 5.0 | 0.00 | 0.07 | 0.02 | 76 | 1016.8 |
| 20260507112517 | 57 | 106 | 3.0 | 6.0 | 0.00 | 0.17 | 0.15 | 88 | 1019.7 |
| 20260507112034 | 65 | 354 | 1.0 | 2.0 | 0.00 | 0.07 | 0.02 | 73 | 1016.7 |
| 20260507111534 | 57 | 58 | 2.0 | 5.0 | 0.00 | 0.17 | 0.15 | 91 | 1019.5 |
| 20260507111030 | 64 | 356 | 1.0 | 4.0 | 0.00 | 0.07 | 0.02 | 74 | 1016.8 |
| 20260507110530 | 57 | 33 | 1.0 | 4.0 | 0.00 | 0.17 | 0.15 | 87 | 1019.6 |
| 20260507110026 | 64 | 25 | 1.0 | 3.0 | 0.00 | 0.07 | 0.02 | 74 | 1016.7 |
| 20260507105526 | 57 | 146 | 2.0 | 6.0 | 0.00 | 0.17 | 0.15 | 84 | 1019.6 |
| 20260507105023 | 62 | 1 | 1.0 | 3.0 | 0.00 | 0.07 | 0.02 | 76 | 1016.8 |
| 20260507104522 | 56 | 59 | 1.0 | 5.0 | 0.00 | 0.17 | 0.15 | 91 | 1019.6 |
| 20260507104100 | 62 | 352 | 1.0 | 3.0 | 0.00 | 0.07 | 0.02 | 77 | 1016.9 |
| 20260507103519 | 56 | 88 | 2.0 | 5.0 | 0.00 | 0.17 | 0.15 | 93 | 1019.8 |
| 20260507103016 | 63 | 35 | 1.0 | 4.0 | 0.00 | 0.07 | 0.02 | 75 | 1016.8 |
| 20260507102535 | 55 | 127 | 3.0 | 8.0 | 0.00 | 0.17 | 0.15 | 94 | 1019.8 |
| 20260507102032 | 62 | 32 | 1.0 | 3.0 | 0.00 | 0.07 | 0.02 | 77 | 1016.9 |
| 20260507101532 | 55 | 122 | 3.0 | 6.0 | 0.00 | 0.17 | 0.15 | 94 | 1019.8 |
| 20260507101028 | 61 | 15 | 1.0 | 4.0 | 0.00 | 0.07 | 0.02 | 78 | 1017.0 |
| 20260507100528 | 56 | 112 | 4.0 | 9.0 | 0.00 | 0.17 | 0.15 | 93 | 1019.7 |
| 20260507100025 | 60 | 350 | 1.0 | 2.0 | 0.00 | 0.07 | 0.02 | 80 | 1016.9 |
| 20260507095524 | 56 | 103 | 3.0 | 6.0 | 0.00 | 0.17 | 0.15 | 92 | 1019.5 |
| 20260507095021 | 60 | 17 | 1.0 | 4.0 | 0.00 | 0.07 | 0.02 | 80 | 1016.9 |
| 20260507094520 | 56 | 342 | 2.0 | 4.0 | 0.00 | 0.17 | 0.15 | 90 | 1019.6 |
| 20260507094018 | 60 | 355 | 2.0 | 4.0 | 0.00 | 0.07 | 0.02 | 80 | 1017.0 |
| 20260507093516 | 55 | 121 | 3.0 | 8.0 | 0.00 | 0.17 | 0.15 | 91 | 1019.6 |
| 20260507093034 | 60 | 10 | 1.0 | 5.0 | 0.00 | 0.07 | 0.02 | 78 | 1016.9 |
| 20260507092533 | 56 | 119 | 3.0 | 8.0 | 0.00 | 0.17 | 0.15 | 85 | 1019.4 |
| 20260507092050 | 60 | 0 | 1.0 | 5.0 | 0.00 | 0.07 | 0.02 | 80 | 1016.6 |
| 20260507091529 | 55 | 64 | 2.0 | 6.0 | 0.00 | 0.17 | 0.15 | 87 | 1019.2 |
| 20260507091027 | 60 | 37 | 2.0 | 4.0 | 0.00 | 0.07 | 0.02 | 78 | 1016.7 |
| 20260507090525 | 55 | 108 | 3.0 | 6.0 | 0.00 | 0.17 | 0.15 | 90 | 1019.1 |
| 20260507090023 | 59 | 38 | 2.0 | 4.0 | 0.00 | 0.07 | 0.02 | 82 | 1016.8 |
| 20260507085521 | 54 | 69 | 2.0 | 5.0 | 0.00 | 0.17 | 0.15 | 92 | 1019.1 |
| 20260507085019 | 59 | 33 | 1.0 | 3.0 | 0.00 | 0.07 | 0.02 | 83 | 1016.8 |
| 20260507084518 | 55 | 73 | 2.0 | 5.0 | 0.00 | 0.17 | 0.15 | 92 | 1019.2 |
| 20260507084016 | 58 | 2 | 1.0 | 5.0 | 0.00 | 0.07 | 0.02 | 84 | 1016.9 |
| 20260507083534 | 52 | 115 | 2.0 | 5.0 | 0.00 | 0.17 | 0.15 | 92 | 1019.2 |
| 20260507083053 | 59 | 32 | 1.0 | 3.0 | 0.00 | 0.07 | 0.02 | 83 | 1016.8 |
| 20260507082530 | 53 | 95 | 2.0 | 5.0 | 0.00 | 0.17 | 0.15 | 96 | 1019.3 |
| 20260507082028 | 59 | 26 | 1.0 | 4.0 | 0.00 | 0.07 | 0.02 | 84 | 1016.7 |
| 20260507081527 | 50 | 103 | 2.0 | 5.0 | 0.00 | 0.17 | 0.15 | 99 | 1019.2 |
| 20260507081025 | 58 | 32 | 1.0 | 4.0 | 0.00 | 0.07 | 0.02 | 84 | 1016.8 |
| 20260507080523 | 50 | 125 | 3.0 | 7.0 | 0.00 | 0.17 | 0.15 | 98 | 1019.3 |
| 20260507080022 | 57 | 13 | 1.0 | 4.0 | 0.00 | 0.07 | 0.02 | 85 | 1016.7 |
| 20260507075519 | 51 | 97 | 3.0 | 6.0 | 0.00 | 0.17 | 0.15 | 99 | 1019.2 |
| 20260507075018 | 57 | 353 | 1.0 | 3.0 | 0.00 | 0.07 | 0.02 | 85 | 1016.8 |
| 20260507074535 | 51 | 69 | 2.0 | 5.0 | 0.00 | 0.17 | 0.15 | 99 | 1019.1 |
| 20260507074034 | 56 | 27 | 1.0 | 2.0 | 0.00 | 0.07 | 0.02 | 88 | 1016.8 |
| 20260507073531 | 51 | 103 | 2.0 | 4.0 | 0.00 | 0.17 | 0.15 | 99 | 1019.1 |
| 20260507073031 | 56 | 12 | 1.0 | 3.0 | 0.00 | 0.07 | 0.02 | 86 | 1016.9 |
| 20260507072528 | 51 | 96 | 1.0 | 4.0 | 0.00 | 0.17 | 0.15 | 99 | 1019.2 |
| 20260507072026 | 56 | 20 | 1.0 | 2.0 | 0.00 | 0.07 | 0.02 | 88 | 1016.8 |
| 20260507071524 | 51 | 359 | 1.0 | 3.0 | 0.00 | 0.17 | 0.15 | 99 | 1019.2 |
| 20260507071023 | 56 | 14 | 1.0 | 3.0 | 0.00 | 0.07 | 0.02 | 87 | 1016.7 |
| 20260507070521 | 51 | 111 | 1.0 | 4.0 | 0.00 | 0.17 | 0.15 | 99 | 1019.0 |
| 20260507070019 | 60 | 30 | 1.0 | 2.0 | 0.00 | 0.07 | 0.02 | 80 | 1016.6 |
| 20260507065517 | 51 | 326 | 1.0 | 4.0 | 0.00 | 0.17 | 0.15 | 99 | 1018.7 |
| 20260507065035 | 58 | 99 | 1.0 | 6.0 | 0.00 | 0.07 | 0.02 | 77 | 1016.4 |
| 20260507064533 | 51 | 58 | 1.0 | 3.0 | 0.00 | 0.17 | 0.15 | 99 | 1018.7 |
| 20260507064032 | 57 | 98 | 2.0 | 4.0 | 0.00 | 0.07 | 0.02 | 81 | 1016.4 |
| 20260507063529 | 50 | 74 | 2.0 | 5.0 | 0.00 | 0.17 | 0.15 | 99 | 1018.4 |
| 20260507063028 | 57 | 91 | 2.0 | 3.0 | 0.00 | 0.07 | 0.02 | 84 | 1016.3 |
| 20260507062525 | 50 | 91 | 2.0 | 5.0 | 0.00 | 0.17 | 0.15 | 99 | 1018.5 |
| 20260507062024 | 56 | 68 | 1.0 | 4.0 | 0.00 | 0.08 | 0.02 | 86 | 1016.2 |
| 20260507061521 | 50 | 40 | 2.0 | 3.0 | 0.00 | 0.17 | 0.15 | 99 | 1018.2 |
| 20260507061021 | 53 | 73 | 3.0 | 4.0 | 0.00 | 0.09 | 0.02 | 90 | 1016.2 |
| 20260507060537 | 49 | 83 | 2.0 | 6.0 | 0.00 | 0.17 | 0.15 | 99 | 1018.3 |
| 20260507060017 | 52 | 95 | 2.0 | 4.0 | 0.00 | 0.10 | 0.02 | 92 | 1016.4 |
| 20260507055533 | 48 | 91 | 2.0 | 5.0 | 0.00 | 0.18 | 0.15 | 99 | 1018.3 |
| 20260507055034 | 52 | 116 | 2.0 | 4.0 | 0.00 | 0.11 | 0.02 | 94 | 1016.4 |
| 20260507054529 | 48 | 80 | 2.0 | 4.0 | 0.00 | 0.19 | 0.15 | 99 | 1018.3 |
| 20260507054030 | 52 | 113 | 2.0 | 4.0 | 0.00 | 0.12 | 0.02 | 94 | 1016.4 |
| 20260507053525 | 48 | 103 | 1.0 | 3.0 | 0.00 | 0.19 | 0.15 | 99 | 1018.4 |
| 20260507053026 | 51 | 85 | 3.0 | 4.0 | 0.00 | 0.13 | 0.02 | 95 | 1016.4 |
| 20260507052522 | 47 | 344 | 0.0 | 3.0 | 0.01 | 0.20 | 0.15 | 99 | 1018.3 |
| 20260507052023 | 50 | 110 | 2.0 | 3.0 | 0.00 | 0.13 | 0.02 | 95 | 1016.4 |
| 20260507051518 | 47 | 159 | 0.0 | 2.0 | 0.02 | 0.21 | 0.15 | 99 | 1018.2 |
| 20260507051019 | 50 | 111 | 2.0 | 3.0 | 0.00 | 0.13 | 0.02 | 95 | 1016.3 |
| 20260507050534 | 47 | 79 | 1.0 | 2.0 | 0.02 | 0.21 | 0.14 | 99 | 1018.2 |
| 20260507050016 | 50 | 114 | 2.0 | 4.0 | 0.00 | 0.12 | 0.01 | 95 | 1016.2 |
| 20260507045551 | 47 | 96 | 1.0 | 3.0 | 0.02 | 0.22 | 0.14 | 99 | 1018.1 |
| 20260507045032 | 49 | 136 | 3.0 | 5.0 | 0.00 | 0.12 | 0.01 | 95 | 1016.1 |
| 20260507044548 | 47 | 91 | 1.0 | 2.0 | 0.02 | 0.22 | 0.14 | 99 | 1018.0 |
| 20260507044109 | 49 | 143 | 3.0 | 4.0 | 0.00 | 0.12 | 0.01 | 95 | 1016.1 |
| 20260507043544 | 47 | 96 | 1.0 | 2.0 | 0.02 | 0.22 | 0.14 | 99 | 1018.0 |
| 20260507043025 | 49 | 117 | 2.0 | 4.0 | 0.00 | 0.12 | 0.01 | 95 | 1016.1 |
| 20260507042540 | 47 | 85 | 1.0 | 3.0 | 0.02 | 0.21 | 0.14 | 99 | 1018.1 |
| 20260507042021 | 49 | 100 | 1.0 | 3.0 | 0.00 | 0.12 | 0.01 | 94 | 1016.1 |
| 20260507041516 | 47 | 115 | 1.0 | 3.0 | 0.01 | 0.20 | 0.13 | 99 | 1018.0 |
| 20260507041038 | 50 | 68 | 1.0 | 3.0 | 0.00 | 0.12 | 0.01 | 93 | 1016.0 |
| 20260507040532 | 47 | 102 | 1.0 | 3.0 | 0.01 | 0.20 | 0.12 | 99 | 1017.9 |
| 20260507040034 | 49 | 51 | 2.0 | 3.0 | 0.00 | 0.12 | 0.01 | 93 | 1015.9 |
| 20260507035529 | 47 | 101 | 1.0 | 2.0 | 0.02 | 0.20 | 0.12 | 99 | 1017.8 |
| 20260507035030 | 49 | 65 | 2.0 | 3.0 | 0.00 | 0.12 | 0.01 | 94 | 1015.8 |
| 20260507034525 | 46 | 92 | 2.0 | 3.0 | 0.02 | 0.20 | 0.12 | 99 | 1017.7 |
| 20260507034027 | 49 | 84 | 2.0 | 3.0 | 0.00 | 0.12 | 0.01 | 95 | 1015.8 |
| 20260507033521 | 46 | 73 | 1.0 | 2.0 | 0.03 | 0.19 | 0.12 | 99 | 1017.7 |
| 20260507033023 | 49 | 106 | 3.0 | 5.0 | 0.00 | 0.12 | 0.01 | 95 | 1015.8 |
| 20260507032517 | 47 | 105 | 2.0 | 4.0 | 0.04 | 0.19 | 0.12 | 99 | 1017.8 |
| 20260507032020 | 49 | 109 | 2.0 | 4.0 | 0.00 | 0.12 | 0.01 | 96 | 1015.8 |
| 20260507031534 | 47 | 100 | 2.0 | 4.0 | 0.04 | 0.19 | 0.12 | 99 | 1017.7 |
| 20260507031036 | 49 | 73 | 2.0 | 3.0 | 0.00 | 0.12 | 0.01 | 96 | 1015.9 |
| 20260507030530 | 47 | 107 | 3.0 | 4.0 | 0.05 | 0.19 | 0.11 | 99 | 1017.8 |
| 20260507030033 | 49 | 124 | 2.0 | 4.0 | 0.00 | 0.12 | 0.01 | 96 | 1015.8 |
| 20260507025526 | 47 | 110 | 3.0 | 6.0 | 0.05 | 0.18 | 0.11 | 99 | 1017.7 |
| 20260507025029 | 49 | 150 | 3.0 | 4.0 | 0.00 | 0.12 | 0.01 | 95 | 1015.7 |
| 20260507024522 | 47 | 97 | 2.0 | 4.0 | 0.05 | 0.17 | 0.10 | 99 | 1017.9 |
| 20260507024026 | 49 | 134 | 3.0 | 6.0 | 0.00 | 0.12 | 0.01 | 94 | 1015.9 |
| 20260507023519 | 46 | 103 | 2.0 | 4.0 | 0.05 | 0.16 | 0.09 | 99 | 1017.7 |
| 20260507023042 | 49 | 8 | 2.0 | 4.0 | 0.00 | 0.12 | 0.01 | 94 | 1015.9 |
| 20260507022535 | 46 | 94 | 2.0 | 3.0 | 0.05 | 0.16 | 0.08 | 99 | 1017.6 |
| 20260507022018 | 49 | 347 | 1.0 | 4.0 | 0.00 | 0.12 | 0.01 | 94 | 1015.7 |
| 20260507021531 | 46 | 93 | 2.0 | 3.0 | 0.05 | 0.18 | 0.07 | 99 | 1017.7 |
| 20260507021034 | 49 | 120 | 2.0 | 4.0 | 0.00 | 0.12 | 0.01 | 95 | 1015.8 |
| 20260507020527 | 46 | 115 | 3.0 | 4.0 | 0.04 | 0.18 | 0.07 | 99 | 1017.7 |
| 20260507020031 | 49 | 14 | 2.0 | 4.0 | 0.00 | 0.12 | 0.01 | 93 | 1015.8 |
| 20260507015523 | 46 | 110 | 2.0 | 4.0 | 0.03 | 0.17 | 0.06 | 99 | 1017.8 |
| 20260507015047 | 49 | 95 | 2.0 | 4.0 | 0.00 | 0.12 | 0.01 | 95 | 1015.7 |
| 20260507014520 | 46 | 105 | 2.0 | 3.0 | 0.03 | 0.16 | 0.05 | 99 | 1017.6 |
| 20260507014023 | 49 | 56 | 2.0 | 4.0 | 0.00 | 0.12 | 0.01 | 96 | 1015.9 |
| 20260507013537 | 46 | 111 | 2.0 | 3.0 | 0.02 | 0.15 | 0.04 | 99 | 1017.6 |
| 20260507013020 | 49 | 138 | 2.0 | 5.0 | 0.00 | 0.12 | 0.01 | 96 | 1015.8 |
| 20260507012533 | 46 | 113 | 1.0 | 4.0 | 0.02 | 0.15 | 0.03 | 99 | 1017.7 |
| 20260507012036 | 49 | 131 | 2.0 | 4.0 | 0.00 | 0.13 | 0.01 | 95 | 1015.8 |
| 20260507011529 | 45 | 123 | 1.0 | 3.0 | 0.02 | 0.14 | 0.02 | 99 | 1017.7 |
| 20260507011053 | 49 | 64 | 2.0 | 4.0 | 0.00 | 0.13 | 0.01 | 96 | 1015.8 |
| 20260507010525 | 45 | 96 | 3.0 | 7.0 | 0.02 | 0.14 | 0.02 | 99 | 1017.6 |
| 20260507010029 | 49 | 40 | 2.0 | 3.0 | 0.00 | 0.13 | 0.01 | 96 | 1015.9 |
| 20260507005542 | 45 | 100 | 3.0 | 6.0 | 0.02 | 0.15 | 0.02 | 99 | 1017.7 |
| 20260507005025 | 49 | 141 | 3.0 | 5.0 | 0.00 | 0.13 | 0.01 | 96 | 1015.8 |
| 20260507004518 | 45 | 135 | 4.0 | 6.0 | 0.02 | 0.15 | 0.02 | 99 | 1017.7 |
| 20260507004022 | 49 | 149 | 2.0 | 5.0 | 0.00 | 0.13 | 0.01 | 96 | 1015.9 |
| 20260507003535 | 45 | 125 | 4.0 | 8.0 | 0.01 | 0.14 | 0.01 | 99 | 1017.7 |
| 20260507003038 | 49 | 75 | 2.0 | 4.0 | 0.01 | 0.13 | 0.01 | 96 | 1016.0 |
| 20260507002531 | 45 | 111 | 5.0 | 11.0 | 0.00 | 0.13 | 0.00 | 99 | 1017.9 |
| 20260507002035 | 49 | 50 | 1.0 | 3.0 | 0.00 | 0.12 | 0.01 | 96 | 1015.9 |
| 20260507001527 | 45 | 118 | 7.0 | 16.0 | 0.00 | 0.13 | 0.00 | 99 | 1017.9 |
| 20260507001031 | 49 | 27 | 1.0 | 2.0 | 0.00 | 0.12 | 0.01 | 95 | 1015.9 |